EW3055 Weather Reports


time (UTC)temp
C
wind
direction
speed
KPH
gust
KPH
rain 1hr
cm
rain 24hr
cm
rain mn
cm
humidity
%
barometer
mb
20260507120441 12 89 0.0 0.0 0.00 0.00 0.00 92 1015.3
20260507120011 12 89 0.0 0.0 0.00 0.00 0.00 92 1015.3
20260507115441 12 89 0.0 0.0 0.00 0.00 0.00 92 1015.2
20260507114941 12 89 0.0 0.0 0.00 0.00 0.00 92 1015.3
20260507113941 12 89 0.0 0.0 0.00 0.00 0.00 92 1015.4
20260507113010 12 89 0.0 0.0 0.00 0.00 0.00 92 1015.4
20260507112011 12 89 0.0 0.0 0.00 0.00 0.00 91 1015.5
20260507111011 12 89 0.0 0.0 0.00 0.00 0.00 91 1015.5
20260507110511 12 89 0.0 0.0 0.00 0.00 0.00 91 1015.6
20260507110011 12 89 0.0 0.0 0.00 0.00 0.00 91 1015.6
20260507105511 12 89 0.0 0.0 0.00 0.00 0.00 91 1015.6
20260507105010 12 89 0.0 0.0 0.00 0.00 0.00 91 1015.7
20260507104010 13 86 0.0 0.0 0.00 0.00 0.00 91 1015.7
20260507103510 13 86 0.0 0.0 0.00 0.00 0.00 91 1015.7
20260507103010 13 86 0.0 0.0 0.00 0.00 0.00 91 1015.7
20260507102510 13 86 0.0 0.0 0.00 0.00 0.00 91 1015.9
20260507102010 13 86 0.0 0.0 0.00 0.00 0.00 91 1015.9
20260507101510 13 86 0.0 0.0 0.00 0.00 0.00 91 1015.9
20260507100509 13 86 0.0 0.0 0.00 0.00 0.00 91 1015.9
20260507100010 13 86 0.0 0.0 0.00 0.00 0.00 90 1015.9
20260507095510 13 86 0.0 0.0 0.00 0.00 0.00 90 1016.1
20260507095010 13 86 0.0 0.0 0.00 0.00 0.00 90 1016.1
20260507094009 13 86 0.0 0.0 0.00 0.00 0.00 90 1016.2
20260507093509 13 84 0.0 0.0 0.00 0.00 0.00 90 1016.3
20260507093009 13 84 0.0 0.0 0.00 0.00 0.00 90 1016.3
20260507092009 13 84 0.0 0.0 0.00 0.00 0.00 90 1016.3
20260507091509 13 83 0.0 0.0 0.00 0.00 0.00 90 1016.3
20260507091009 13 83 0.0 0.0 0.00 0.00 0.00 90 1016.3
20260507090508 13 83 0.0 0.0 0.00 0.00 0.00 89 1016.3
20260507090008 13 82 0.0 0.0 0.00 0.00 0.00 89 1016.4
20260507085508 13 82 0.0 0.0 0.00 0.00 0.00 89 1016.5
20260507085009 13 82 0.0 0.0 0.00 0.00 0.00 89 1016.6
20260507084008 13 82 0.0 0.0 0.00 0.00 0.00 89 1016.6
20260507083508 13 82 0.0 0.0 0.00 0.00 0.00 89 1016.7
20260507083009 13 82 0.0 0.0 0.00 0.00 0.00 89 1016.6
20260507082509 13 82 0.0 0.0 0.00 0.00 0.00 89 1016.8
20260507081508 13 118 0.0 0.0 0.00 0.00 0.00 89 1016.7
20260507081008 13 118 0.0 0.0 0.00 0.00 0.00 89 1016.9
20260507080508 14 118 0.0 0.0 0.00 0.00 0.00 89 1016.8
20260507080008 13 116 0.0 0.0 0.00 0.00 0.00 89 1016.9
20260507075508 14 115 0.0 0.0 0.00 0.00 0.00 89 1016.9
20260507075008 13 118 0.0 0.0 0.00 0.00 0.00 89 1016.8
20260507074508 14 117 0.0 0.0 0.00 0.00 0.00 88 1016.8
20260507073508 14 116 0.0 0.0 0.00 0.00 0.00 88 1017.0
20260507073008 14 116 0.0 0.0 0.00 0.00 0.00 88 1017.0
20260507071507 14 122 0.0 0.0 0.00 0.00 0.00 88 1017.1
20260507071007 14 122 0.0 0.0 0.00 0.00 0.00 88 1017.1
20260507070507 14 122 0.0 0.0 0.00 0.00 0.00 88 1017.1
20260507070010 14 122 0.0 0.0 0.00 0.00 0.00 87 1017.1
20260507065507 14 122 0.0 0.0 0.00 0.00 0.00 87 1017.1
20260507065007 14 122 0.0 0.0 0.00 0.00 0.00 87 1017.1
20260507064507 14 122 0.0 0.0 0.00 0.00 0.00 87 1017.1
20260507063507 14 122 0.0 0.0 0.00 0.00 0.00 87 1017.0
20260507062507 15 122 0.0 0.0 0.00 0.00 0.00 87 1016.9
20260507062006 15 122 0.0 0.0 0.00 0.00 0.00 87 1016.9
20260507061006 14 132 0.0 0.0 0.00 0.00 0.00 86 1017.0
20260507060506 14 198 0.0 0.0 0.00 0.00 0.00 85 1017.0
20260507060006 15 198 0.0 0.0 0.00 0.00 0.00 85 1017.0
20260507055506 15 198 0.0 0.0 0.00 0.00 0.00 85 1017.1
20260507055006 15 198 0.0 0.0 0.00 0.00 0.00 85 1017.1
20260507054506 15 198 0.0 0.0 0.00 0.00 0.00 85 1017.0
20260507054006 15 198 0.0 0.0 0.00 0.00 0.00 84 1017.0
20260507053506 15 198 0.0 0.0 0.00 0.00 0.00 84 1017.1
20260507053006 15 198 0.0 0.0 0.00 0.00 0.00 84 1017.0
20260507052506 15 198 0.0 0.0 0.00 0.00 0.00 84 1017.1
20260507052006 15 198 0.0 0.0 0.00 0.00 0.00 83 1017.1
20260507051506 15 198 0.0 0.0 0.00 0.00 0.00 83 1017.0
20260507051006 15 198 0.0 0.0 0.00 0.00 0.00 83 1017.1
20260507050506 15 198 0.0 0.0 0.00 0.00 0.00 83 1017.1
20260507050006 15 198 0.0 0.0 0.00 0.00 0.00 83 1016.9
20260507045505 15 198 0.0 0.0 0.00 0.00 0.00 83 1016.8
20260507045005 15 213 0.0 0.0 0.00 0.00 0.00 83 1016.9
20260507044505 16 222 0.0 0.0 0.00 0.00 0.00 83 1016.9
20260507044006 16 218 0.0 0.0 0.00 0.00 0.00 82 1016.9
20260507043506 16 217 0.0 0.0 0.00 0.00 0.00 82 1016.8
20260507043005 16 285 0.0 0.0 0.00 0.00 0.00 81 1016.8
20260507042505 16 286 0.0 0.0 0.00 0.00 0.00 81 1016.9
20260507042005 16 286 0.0 0.0 0.00 0.00 0.00 81 1016.8
20260507041505 16 220 0.0 0.0 0.00 0.00 0.00 81 1016.9
20260507041006 16 204 0.0 3.2 0.00 0.00 0.00 80 1016.8
20260507040505 16 205 0.0 4.8 0.00 0.00 0.00 80 1016.7
20260507035505 16 230 0.0 4.8 0.00 0.00 0.00 81 1016.7
20260507035005 16 226 0.0 3.2 0.00 0.00 0.00 81 1016.7
20260507034505 16 207 0.0 4.8 0.00 0.00 0.00 81 1016.6
20260507033505 16 225 0.0 6.4 0.00 0.00 0.00 80 1016.6
20260507033005 16 257 0.0 6.4 0.00 0.00 0.00 80 1016.6
20260507031005 17 234 4.8 8.0 0.00 0.00 0.00 79 1016.5
20260507030505 17 211 3.2 9.7 0.00 0.00 0.00 79 1016.4
20260507030004 17 290 6.4 9.7 0.00 0.00 0.00 79 1016.3
20260507025004 17 278 3.2 6.4 0.00 0.00 0.00 79 1016.1
20260507024504 17 253 3.2 8.0 0.00 0.00 0.00 78 1016.1
20260507024005 17 288 6.4 8.0 0.00 0.00 0.00 77 1016.1
20260507023505 17 250 4.8 8.0 0.00 0.00 0.00 77 1016.1
20260507022004 18 236 4.8 11.3 0.00 0.00 0.00 74 1016.0
20260507021504 18 259 3.2 9.7 0.00 0.00 0.00 73 1016.0
20260507021004 18 254 4.8 11.3 0.00 0.00 0.00 71 1015.9
20260507020004 18 261 8.0 12.9 0.00 0.00 0.00 70 1015.8
20260507015004 19 304 9.7 14.5 0.00 0.00 0.00 68 1015.6
20260507014504 19 278 8.0 14.5 0.00 0.00 0.00 65 1015.6
20260507014003 19 259 6.4 12.9 0.00 0.00 0.00 64 1015.5
20260507013504 20 252 4.8 12.9 0.00 0.00 0.00 63 1015.6
20260507013003 20 290 11.3 12.9 0.00 0.00 0.00 61 1015.5
20260507012504 20 285 8.0 12.9 0.00 0.00 0.00 61 1015.5
20260507012003 20 284 6.4 17.7 0.00 0.00 0.00 61 1015.6
20260507011503 20 245 3.2 17.7 0.00 0.00 0.00 60 1015.5
20260507010003 20 227 8.0 16.1 0.00 0.00 0.00 58 1015.4
20260507005504 20 269 8.0 16.1 0.00 0.00 0.00 58 1015.4
20260507005003 20 257 6.4 12.9 0.00 0.00 0.00 57 1015.3
20260507004503 21 259 6.4 19.3 0.00 0.00 0.00 57 1015.5
20260507004003 20 229 4.8 19.3 0.00 0.00 0.00 58 1015.5
20260507003503 20 237 6.4 17.7 0.00 0.00 0.00 58 1015.5
20260507002503 20 244 6.4 17.7 0.00 0.00 0.00 59 1015.4
20260507002003 20 265 8.0 17.7 0.00 0.00 0.00 60 1015.2
20260507001002 20 261 9.7 19.3 0.00 0.00 0.00 62 1015.2
20260507000502 20 300 6.4 19.3 0.00 0.00 0.00 62 1015.1
20260506235503 20 259 9.7 17.7 0.00 0.00 0.00 62 1015.0
20260506235002 20 288 14.5 20.9 0.00 0.00 0.00 61 1015.1
20260506234502 20 236 8.0 20.9 0.00 0.00 0.00 62 1015.1
20260506234003 20 277 11.3 19.3 0.00 0.00 0.00 62 1015.1
20260506233503 21 249 4.8 19.3 0.00 0.00 0.00 61 1015.0
20260506233003 21 302 6.4 19.3 0.00 0.00 0.00 62 1015.0
20260506232502 21 276 14.5 19.3 0.00 0.00 0.00 62 1015.2
20260506231502 21 238 16.1 19.3 0.00 0.00 0.00 63 1015.3
20260506231002 21 246 9.7 17.7 0.00 0.00 0.00 62 1015.3
20260506230502 21 274 9.7 20.9 0.00 0.00 0.00 61 1015.3
20260506230002 20 265 16.1 20.9 0.00 0.00 0.00 62 1015.2
20260506225001 21 274 9.7 24.1 0.00 0.00 0.00 62 1015.4
20260506224501 21 287 11.3 24.1 0.00 0.00 0.00 62 1015.4
20260506224001 21 260 11.3 19.3 0.00 0.00 0.00 64 1015.5
20260506223501 21 223 16.1 19.3 0.00 0.00 0.00 63 1015.7
20260506221501 21 290 14.5 20.9 0.00 0.00 0.00 64 1015.7
20260506221001 21 272 14.5 20.9 0.00 0.00 0.00 64 1015.8
20260506220501 21 284 14.5 19.3 0.00 0.00 0.00 63 1015.9
20260506215501 21 260 8.0 19.3 0.00 0.00 0.00 64 1016.0
20260506214501 21 269 8.0 22.5 0.00 0.00 0.00 64 1016.0
20260506214001 21 276 12.9 25.7 0.00 0.00 0.00 64 1016.0
20260506213501 21 279 12.9 25.7 0.00 0.00 0.00 63 1016.0
20260506213001 21 271 9.7 22.5 0.00 0.00 0.00 62 1016.2
20260506212000 21 274 11.3 20.9 0.00 0.00 0.00 63 1016.1
20260506210500 21 294 11.3 20.9 0.00 0.00 0.00 63 1016.2
20260506210000 21 242 11.3 20.9 0.00 0.00 0.00 63 1016.2
20260506205000 21 222 9.7 22.5 0.00 0.00 0.00 63 1016.3
20260506204500 21 250 11.3 19.3 0.00 0.00 0.00 64 1016.3
20260506204000 21 211 14.5 22.5 0.00 0.00 0.00 64 1016.3
20260506203500 21 243 16.1 22.5 0.00 0.00 0.00 64 1016.2
20260506202000 20 274 12.9 19.3 0.00 0.00 0.00 65 1016.6
20260506201500 20 242 12.9 19.3 0.00 0.00 0.00 64 1016.6
20260506201000 21 224 11.3 19.3 0.00 0.00 0.00 63 1016.7
20260506200500 21 302 11.3 19.3 0.00 0.00 0.00 62 1016.8
20260506200000 21 277 12.9 22.5 0.00 0.00 0.00 64 1016.8
20260506195500 20 278 12.9 22.5 0.00 0.00 0.00 64 1016.8
20260506195000 20 295 9.7 22.5 0.00 0.00 0.00 63 1016.9
20260506194500 21 271 11.3 22.5 0.00 0.00 0.00 63 1016.9
20260506194000 21 286 14.5 20.9 0.00 0.00 0.00 63 1016.9
20260506192500 21 250 4.8 24.1 0.00 0.00 0.00 62 1016.9
20260506191959 21 287 8.0 24.1 0.00 0.00 0.00 62 1017.2
20260506191459 21 241 11.3 17.7 0.00 0.00 0.00 60 1017.3
20260506190959 21 275 8.0 17.7 0.00 0.00 0.00 60 1017.2
20260506190459 21 316 3.2 17.7 0.00 0.00 0.00 59 1017.1
20260506190002 21 290 6.4 14.5 0.00 0.00 0.00 58 1017.1
20260506185459 21 257 9.7 12.9 0.00 0.00 0.00 57 1017.2
20260506184959 21 273 11.3 12.9 0.00 0.00 0.00 57 1017.2
20260506184459 21 261 9.7 12.9 0.00 0.00 0.00 57 1017.2
20260506183959 21 240 6.4 12.9 0.00 0.00 0.00 56 1017.3
20260506183459 20 244 4.8 16.1 0.00 0.00 0.00 55 1017.5
20260506182959 21 219 8.0 16.1 0.00 0.00 0.00 55 1017.5
20260506182459 21 237 9.7 11.3 0.00 0.00 0.00 54 1017.6
20260506181959 21 250 4.8 11.3 0.00 0.00 0.00 56 1017.7
20260506181459 20 319 3.2 9.7 0.00 0.00 0.00 57 1017.7
20260506180959 20 50 0.0 9.7 0.00 0.00 0.00 56 1017.7
20260506180458 20 269 6.4 9.7 0.00 0.00 0.00 57 1017.7
20260506175958 20 22 0.0 6.4 0.00 0.00 0.00 59 1017.8
20260506175459 20 302 0.0 9.7 0.00 0.00 0.00 59 1017.9
20260506174958 20 309 6.4 11.3 0.00 0.00 0.00 60 1018.0
20260506174459 19 306 1.6 11.3 0.00 0.00 0.00 59 1018.1
20260506173958 18 302 11.3 11.3 0.00 0.00 0.00 61 1018.0
20260506173458 18 244 9.7 9.7 0.00 0.00 0.00 61 1018.0
20260506172958 18 192 0.0 9.7 0.00 0.00 0.00 63 1018.0
20260506171958 18 84 1.6 9.7 0.00 0.00 0.00 63 1018.1
20260506171458 18 279 9.7 11.3 0.00 0.00 0.00 66 1018.2
20260506170958 18 221 4.8 11.3 0.00 0.00 0.00 65 1018.3
20260506170458 18 254 3.2 8.0 0.00 0.00 0.00 66 1018.2
20260506164958 17 240 0.0 9.7 0.00 0.00 0.00 68 1018.2
20260506164457 17 290 6.4 8.0 0.00 0.00 0.00 68 1018.2
20260506163957 17 273 0.0 9.7 0.00 0.00 0.00 70 1018.3
20260506162957 17 279 9.7 11.3 0.00 0.00 0.00 71 1018.3
20260506162457 16 284 8.0 11.3 0.00 0.00 0.00 74 1018.2
20260506161957 16 225 4.8 11.3 0.00 0.00 0.00 74 1018.2
20260506161457 16 232 4.8 9.7 0.00 0.00 0.00 76 1018.2
20260506160957 16 274 3.2 8.0 0.00 0.00 0.00 77 1018.1
20260506160457 16 237 3.2 9.7 0.00 0.00 0.00 77 1018.1
20260506155957 16 237 0.0 9.7 0.00 0.00 0.00 78 1018.2
20260506154956 15 216 0.0 0.0 0.00 0.00 0.00 81 1018.2
20260506154457 15 214 0.0 6.4 0.00 0.00 0.00 82 1018.1
20260506153956 15 304 0.0 6.4 0.00 0.00 0.00 83 1018.2
20260506153456 15 222 0.0 0.0 0.00 0.00 0.00 85 1018.2
20260506152956 14 285 0.0 1.6 0.00 0.00 0.00 86 1018.2
20260506152456 14 298 0.0 1.6 0.00 0.00 0.00 88 1018.2
20260506151956 13 253 0.0 0.0 0.00 0.00 0.00 89 1018.2
20260506151456 13 255 0.0 0.0 0.00 0.00 0.00 91 1018.2
20260506150956 13 250 0.0 0.0 0.00 0.00 0.00 92 1018.2
20260506145957 12 270 0.0 0.0 0.00 0.00 0.00 93 1018.3
20260506144456 12 300 0.0 0.0 0.00 0.00 0.00 94 1018.2
20260506143956 11 300 0.0 0.0 0.00 0.00 0.00 94 1018.1
20260506143455 11 306 0.0 0.0 0.00 0.00 0.00 95 1018.1
20260506142955 11 319 0.0 0.0 0.00 0.00 0.00 95 1018.1
20260506142455 10 46 0.0 0.0 0.00 0.00 0.00 95 1018.0
20260506141955 10 48 0.0 0.0 0.00 0.00 0.00 95 1018.0
20260506141456 10 71 0.0 0.0 0.00 0.00 0.00 94 1017.9
20260506140955 10 71 0.0 0.0 0.00 0.00 0.00 94 1017.9
20260506140455 10 71 0.0 0.0 0.00 0.00 0.00 94 1017.9
20260506135455 9 71 0.0 0.0 0.00 0.00 0.00 94 1017.8
20260506134955 9 71 0.0 0.0 0.00 0.00 0.00 93 1017.8
20260506134455 9 71 0.0 0.0 0.00 0.00 0.00 93 1017.7
20260506133955 9 71 0.0 0.0 0.00 0.00 0.00 93 1017.6
20260506132955 9 71 0.0 0.0 0.00 0.00 0.00 93 1017.5
20260506131955 9 71 0.0 0.0 0.00 0.00 0.00 93 1017.5
20260506130455 9 291 0.0 0.0 0.00 0.00 0.00 92 1017.3
20260506125955 9 291 0.0 0.0 0.00 0.00 0.00 93 1017.2
20260506125454 9 291 0.0 0.0 0.00 0.00 0.00 93 1017.2
20260506124955 9 291 0.0 0.0 0.00 0.00 0.00 92 1017.1
20260506124454 9 291 0.0 0.0 0.00 0.00 0.00 92 1017.1
20260506123954 9 291 0.0 0.0 0.00 0.00 0.00 92 1017.0
20260506122954 10 291 0.0 0.0 0.00 0.00 0.00 93 1017.0
20260506122454 10 291 0.0 0.0 0.00 0.00 0.00 93 1017.0
20260506121954 9 291 0.0 0.0 0.00 0.00 0.00 93 1017.0
20260506121454 9 291 0.0 0.0 0.00 0.00 0.00 92 1017.0
20260506120954 9 291 0.0 0.0 0.00 0.00 0.00 92 1017.0